Location: Pordenone
(45.9640°N, 12.6580°E)
Time: 03:27:32
(UTC+02:00)

ISS - Pass Details

Date: 15 May 2021
Orbit: 417 x 422 km, 51.6° (Epoch: 14 June)

Event Time Altitude Azimuth Distance (km) Brightness Sun altitude
Rises 02:02:45 0° 292° (WNW) 2,371 0.2 -23.9°
Reaches altitude 10° 02:04:59 10° 303° (WNW) 1,507 -0.8 -23.8°
Maximum altitude 02:08:05 32° 9° (N) 742 -1.9 -23.6°
Drops below altitude 10° 02:11:11 10° 75° (ENE) 1,507 -0.6 -23.5°
Sets 02:13:25 0° 85° (E) 2,372 0.3 -23.4°
